Date String (YYYY-MM-DD hh:mm:ss) UTC,Instrument flags,absolute air pressure of the measurement (hPa),sample flow rate (lpm),inlet stack bypass flow (lpm),air temperature of the measurement (°C),ambient temperature measured by the external sensor (°C),aerosol sample conditioner tube jacket temperature (°C),OPC LED temperature (°C),internal box temperature (°C),relative humidity of the measurement (%),span deviation,mass concentration of particles derived from Lorenz-Mie calculation of OPC scattering (μg/m³),mass concentration of particles derived from Lorenz-Mie calculation of OPC scattering (μg/m³),mass concentration of particles derived from Lorenz-Mie calculation of OPC scattering (μg/m³)
DateTimeUTC,F1_M11,P_M11,Q1_M11,Q2_M11,T1_M11,T2_M11,T3_M11,T4_M11,T5_M11,U1_M11,ZSPAN_M11,X0_M11,X2_M11,X1_M11
2023-10-21 23:00:00,SystemResetWarning,0826.9,5.00,000.00,028.2,026.9,000.0,036.4,030.0,11.5,0000.0,0013.18,0003.09,0001.55
2023-10-21 23:01:00,SystemResetWarning,0827.0,5.00,000.00,028.2,027.1,000.0,036.5,030.1,11.5,0000.0,0012.16,0003.14,0001.60
2023-10-21 23:02:00,SystemResetWarning,0827.0,5.00,000.00,028.2,026.2,000.0,036.5,030.1,11.8,0000.0,0011.41,0003.14,0001.63
2023-10-21 23:03:00,SystemResetWarning,0826.9,5.00,000.00,028.2,024.5,000.0,036.4,029.8,12.0,0000.0,0011.47,0003.16,0001.68
2023-10-21 23:04:00,SystemResetWarning,0826.9,5.01,000.00,028.1,024.2,000.0,036.4,029.7,12.0,0000.0,0012.33,0003.27,0001.72
2023-10-21 23:05:00,SystemResetWarning,0826.9,5.01,000.00,028.0,024.5,000.0,036.3,029.6,11.8,0000.0,0013.01,0003.36,0001.76
2023-10-21 23:06:00,SystemResetWarning,0826.9,4.99,000.00,028.0,024.9,000.0,036.4,029.5,11.9,0000.0,0013.38,0003.41,0001.83
2023-10-21 23:07:00,SystemResetWarning,0826.9,5.00,000.00,028.0,025.4,000.0,036.4,029.6,12.0,0000.0,0014.18,0003.44,0001.87
2023-10-21 23:08:00,SystemResetWarning,0826.9,5.00,000.00,028.0,025.8,000.0,036.4,029.7,11.9,0000.0,0014.05,0003.55,0001.92
2023-10-21 23:09:00,SystemResetWarning,0826.9,5.00,000.00,028.0,026.2,000.0,036.4,029.8,12.0,0000.0,0014.29,0003.61,0001.98
2023-10-21 23:10:00,SystemResetWarning,0826.9,5.00,000.00,028.1,026.6,000.0,036.4,029.9,12.0,0000.0,0014.70,0003.67,0002.03
2023-10-21 23:11:00,SystemResetWarning,0826.9,5.00,000.00,028.2,026.9,000.0,036.4,030.0,12.1,0000.0,0014.50,0003.65,0002.07
2023-10-21 23:12:00,SystemResetWarning,0826.9,5.00,000.00,028.2,027.1,000.0,036.5,030.1,12.1,0000.0,0014.37,0003.65,0002.10
2023-10-21 23:13:00,SystemResetWarning,0826.9,4.98,000.00,028.3,026.5,000.0,036.5,030.1,12.1,0000.0,0015.01,0003.70,0002.13
2023-10-21 23:14:00,SystemResetWarning,0826.8,5.01,000.00,028.2,024.8,000.0,036.4,029.9,12.1,0000.0,0015.40,0003.75,0002.14
2023-10-21 23:15:00,SystemResetWarning,0826.8,5.01,000.00,028.1,024.2,000.0,036.3,029.7,12.1,0000.0,0015.30,0003.73,0002.15
2023-10-21 23:16:00,SystemResetWarning,0826.8,4.99,000.00,028.0,024.4,000.0,036.3,029.6,12.0,0000.0,0015.47,0003.67,0002.14
2023-10-21 23:17:00,SystemResetWarning,0826.9,5.00,000.00,028.0,024.8,000.0,036.3,029.5,12.1,0000.0,0015.16,0003.61,0002.14
2023-10-21 23:18:00,SystemResetWarning,0826.9,5.01,000.00,028.0,025.3,000.0,036.3,029.6,12.2,0000.0,0014.71,0003.61,0002.15
2023-10-21 23:19:00,SystemResetWarning,0826.9,5.00,000.00,028.0,025.7,000.0,036.4,029.7,12.2,0000.0,0013.69,0003.59,0002.17
2023-10-21 23:20:00,SystemResetWarning,0826.9,4.98,000.00,028.0,026.1,000.0,036.4,029.8,12.3,0000.0,0013.21,0003.59,0002.17
2023-10-21 23:21:00,SystemResetWarning,0826.9,4.99,000.00,028.1,026.5,000.0,036.4,029.9,12.3,0000.0,0013.14,0003.57,0002.17
2023-10-21 23:22:00,SystemResetWarning,0826.9,5.01,000.00,028.1,026.8,000.0,036.4,030.0,12.4,0000.0,0014.12,0003.58,0002.17
2023-10-21 23:23:00,SystemResetWarning,0827.0,5.01,000.00,028.2,027.0,000.0,036.4,030.0,12.4,0000.0,0015.54,0003.59,0002.18
2023-10-21 23:24:00,SystemResetWarning,0826.9,4.99,000.00,028.2,027.2,000.0,036.5,030.1,12.4,0000.0,0015.67,0003.56,0002.18
2023-10-21 23:25:00,SystemResetWarning,0826.9,4.98,000.00,028.3,026.1,000.0,036.5,030.1,12.4,0000.0,0015.78,0003.54,0002.19
2023-10-21 23:26:00,SystemResetWarning,0826.9,5.01,000.00,028.2,024.3,000.0,036.4,029.8,12.5,0000.0,0015.01,0003.57,0002.20
2023-10-21 23:27:00,SystemResetWarning,0826.9,5.00,000.00,028.1,024.1,000.0,036.4,029.7,12.6,0000.0,0015.74,0003.60,0002.22
2023-10-21 23:28:00,SystemResetWarning,0826.9,5.02,000.00,028.0,024.4,000.0,036.4,029.5,12.7,0000.0,0016.45,0003.65,0002.25
2023-10-21 23:29:00,SystemResetWarning,0826.9,4.99,000.00,028.0,024.9,000.0,036.4,029.5,12.8,0000.0,0016.81,0003.74,0002.27
2023-10-21 23:30:00,SystemResetWarning,0826.9,5.00,000.00,028.0,025.3,000.0,036.4,029.6,12.9,0000.0,0017.13,0003.72,0002.26
2023-10-21 23:31:00,SystemResetWarning,0827.0,5.01,000.00,028.0,025.8,000.0,036.4,029.7,12.8,0000.0,0017.06,0003.75,0002.29
2023-10-21 23:32:00,SystemResetWarning,0826.9,5.00,000.00,028.0,026.1,000.0,036.4,029.8,12.8,0000.0,0017.63,0003.74,0002.29
2023-10-21 23:33:00,SystemResetWarning,0827.0,4.99,000.00,028.1,026.5,000.0,036.4,029.9,12.8,0000.0,0017.62,0003.76,0002.30
2023-10-21 23:34:00,SystemResetWarning,0826.9,5.00,000.00,028.1,026.8,000.0,036.4,030.0,12.8,0000.0,0017.17,0003.79,0002.32
2023-10-21 23:35:00,SystemResetWarning,0827.0,5.00,000.00,028.2,027.0,000.0,036.5,030.1,12.8,0000.0,0016.98,0003.81,0002.33
2023-10-21 23:36:00,SystemResetWarning,0827.0,5.01,000.00,028.2,027.1,000.0,036.5,030.1,12.8,0000.0,0016.16,0003.85,0002.33
2023-10-21 23:37:00,SystemResetWarning,0826.9,4.98,000.00,028.2,025.6,000.0,036.5,030.0,12.8,0000.0,0016.31,0003.90,0002.34
2023-10-21 23:38:00,SystemResetWarning,0826.9,5.01,000.00,028.1,024.1,000.0,036.4,029.7,12.9,0000.0,0016.94,0003.91,0002.36
2023-10-21 23:39:00,SystemResetWarning,0826.9,5.02,000.00,028.1,024.1,000.0,036.3,029.7,12.9,0000.0,0017.00,0003.92,0002.37
2023-10-21 23:40:00,SystemResetWarning,0826.9,4.99,000.00,028.0,024.5,000.0,036.3,029.5,13.0,0000.0,0017.94,0003.93,0002.35
2023-10-21 23:41:00,SystemResetWarning,0827.0,5.00,000.00,027.9,025.0,000.0,036.4,029.5,13.0,0000.0,0018.01,0003.94,0002.35
2023-10-21 23:42:00,SystemResetWarning,0827.0,5.00,000.00,028.0,025.4,000.0,036.4,029.6,12.9,0000.0,0019.20,0003.96,0002.34
2023-10-21 23:43:00,SystemResetWarning,0827.0,5.00,000.00,028.0,025.8,000.0,036.4,029.7,12.9,0000.0,0019.79,0003.99,0002.35
2023-10-21 23:44:00,SystemResetWarning,0827.0,5.01,000.00,028.0,026.2,000.0,036.4,029.8,12.9,0000.0,0019.83,0003.97,0002.35
2023-10-21 23:45:00,SystemResetWarning,0827.0,4.99,000.00,028.1,026.5,000.0,036.4,029.9,12.9,0000.0,0019.71,0003.97,0002.32
2023-10-21 23:46:00,SystemResetWarning,0827.0,5.00,000.00,028.1,026.8,000.0,036.4,030.0,12.9,0000.0,0020.16,0003.98,0002.30
2023-10-21 23:47:00,SystemResetWarning,0827.1,5.00,000.00,028.2,027.1,000.0,036.4,030.1,12.9,0000.0,0020.07,0003.93,0002.29
2023-10-21 23:48:00,SystemResetWarning,0827.1,5.01,000.00,028.2,027.2,000.0,036.5,030.1,12.8,0000.0,0020.67,0003.86,0002.27
2023-10-21 23:49:00,SystemResetWarning,0827.1,4.98,000.00,028.3,026.1,000.0,036.5,030.1,12.7,0000.0,0020.18,0003.77,0002.23
2023-10-21 23:50:00,SystemResetWarning,0827.1,5.00,000.00,028.2,024.4,000.0,036.4,029.8,12.8,0000.0,0019.34,0003.77,0002.21
2023-10-21 23:51:00,SystemResetWarning,0827.1,5.01,000.00,028.1,024.1,000.0,036.4,029.7,12.8,0000.0,0018.96,0003.73,0002.20
2023-10-21 23:52:00,SystemResetWarning,0827.1,5.01,000.00,028.0,024.4,000.0,036.4,029.5,12.9,0000.0,0018.54,0003.70,0002.21
2023-10-21 23:53:00,SystemResetWarning,0827.1,5.00,000.00,027.9,024.8,000.0,036.4,029.5,13.0,0000.0,0017.39,0003.70,0002.25
2023-10-21 23:54:00,SystemResetWarning,0827.1,5.00,000.00,027.9,025.2,000.0,036.4,029.6,13.0,0000.0,0017.00,0003.79,0002.31
2023-10-21 23:55:00,SystemResetWarning,0827.1,5.01,000.00,028.0,025.7,000.0,036.4,029.7,13.0,0000.0,0016.59,0003.91,0002.36
2023-10-21 23:56:00,SystemResetWarning,0827.1,4.99,000.00,028.0,026.1,000.0,036.4,029.8,13.0,0000.0,0016.49,0003.93,0002.43
2023-10-21 23:57:00,SystemResetWarning,0827.1,4.99,000.00,028.0,026.4,000.0,036.4,029.8,13.0,0000.0,0016.41,0004.01,0002.48
2023-10-21 23:58:00,SystemResetWarning,0827.2,5.00,000.00,028.1,026.7,000.0,036.4,029.9,13.0,0000.0,0016.91,0004.13,0002.54
2023-10-21 23:59:00,SystemResetWarning,0827.2,5.00,000.00,028.2,026.9,000.0,036.5,030.0,12.9,0000.0,0017.10,0004.20,0002.59
